#timestamp,LO_Frequency,Hit,Temp,Hum 
1480291215.7,286047114.6,N,0.0,0.0
1480291235.5,286047112.2,N,0.0,0.0
1480291255.4,286047112.2,N,0.0,0.0
1480291275.2,286047112.1,N,0.0,0.0
1480291295.1,286047113.5,N,0.0,0.0
1480291296.0,286047113.5,N,0.0,0.0
1480291315.8,286047117.7,N,0.0,0.0
1480291335.6,286047118.7,N,0.0,0.0
1480291355.5,286047118.8,N,0.0,0.0
1480291375.3,286047118.8,N,0.0,0.0
1480291395.1,286047117.0,N,0.0,0.0
1480291415.9,286047118.9,N,0.0,0.0
1480291435.7,286047121.2,N,0.0,0.0
1480291455.6,286047118.1,N,0.0,0.0
1480291475.4,286047119.1,N,0.0,0.0
1480291495.2,286047116.7,N,0.0,0.0
1480291515.1,286047118.8,N,0.0,0.0
1480291516.0,286047118.8,N,0.0,0.0
1480291535.8,286047118.3,N,0.0,0.0
1480291555.7,286047118.2,N,0.0,0.0
1480291575.5,286047120.7,N,0.0,0.0
1480291595.3,286047120.9,N,0.0,0.0
1480291615.2,286047118.8,N,0.0,0.0
1480291635.9,286047119.3,N,0.0,0.0
1480291655.7,286047118.9,N,0.0,0.0
1480291675.6,286047116.9,N,0.0,0.0
1480291695.4,286047119.4,N,0.0,0.0
1480291715.2,286047119.3,N,0.0,0.0
1480291735.1,286047117.8,N,0.0,0.0
1480291736.0,286047117.8,N,0.0,0.0
1480291755.8,286047117.8,N,0.0,0.0
1480291775.7,286047117.4,N,0.0,0.0
1480291795.5,286047115.3,N,0.0,0.0
1480291815.3,286047116.0,N,0.0,0.0
1480291835.2,286047115.0,N,0.0,0.0
1480291855.0,286047117.6,N,0.0,0.0
1480291855.9,286047117.6,N,0.0,0.0
1480291875.8,286047118.0,N,0.0,0.0
1480291895.6,286047116.8,N,0.0,0.0
1480291915.4,286047119.0,N,0.0,0.0
1480291935.3,286047118.9,N,0.0,0.0
1480291955.1,286047115.3,N,0.0,0.0
1480291975.9,286047116.4,N,0.0,0.0
1480291995.7,286047115.8,N,0.0,0.0
1480292015.5,286047118.0,N,0.0,0.0
1480292035.4,286047116.1,N,0.0,0.0
1480292055.2,286047115.5,N,0.0,0.0
1480292075.0,286047117.7,N,0.0,0.0
1480292075.9,286047117.7,N,0.0,0.0
1480292095.8,286047117.3,N,0.0,0.0
1480292115.6,286047117.4,N,0.0,0.0
1480292135.5,286047117.2,N,0.0,0.0
1480292155.3,286047116.6,N,0.0,0.0
1480292175.1,286047116.5,N,0.0,0.0
1480292195.9,286047116.5,N,0.0,0.0
1480292215.7,286047116.7,N,0.0,0.0
1480292235.5,286047119.1,N,0.0,0.0
1480292255.4,286047117.4,N,0.0,0.0
1480292275.2,286047114.9,N,0.0,0.0
1480292295.1,286047116.6,N,0.0,0.0
1480292296.0,286047116.6,N,0.0,0.0
1480292315.8,286047119.4,N,0.0,0.0
1480292335.6,286047118.7,N,0.0,0.0
1480292355.5,286047118.8,N,0.0,0.0
1480292375.3,286047118.3,N,0.0,0.0
1480292395.1,286047118.9,N,0.0,0.0
1480292415.9,286047118.7,N,0.0,0.0
1480292435.7,286047121.0,N,0.0,0.0
1480292455.6,286047120.3,N,0.0,0.0
1480292475.4,286047116.8,N,0.0,0.0
1480292495.2,286047115.4,N,0.0,0.0
1480292515.1,286047116.2,N,0.0,0.0
1480292516.0,286047116.2,N,0.0,0.0
1480292535.8,286047117.5,N,0.0,0.0
1480292555.7,286047116.9,N,0.0,0.0
1480292575.5,286047117.5,N,0.0,0.0
1480292595.3,286047117.5,N,0.0,0.0
1480292615.2,286047119.4,N,0.0,0.0
1480292635.0,286047120.8,N,0.0,0.0
1480292635.9,286047120.8,N,0.0,0.0
1480292655.7,286047118.1,N,0.0,0.0
1480292675.6,286047120.7,N,0.0,0.0
1480292695.4,286047120.6,N,0.0,0.0
1480292715.3,286047120.7,N,0.0,0.0
1480292735.1,286047117.5,N,0.0,0.0
1480292736.0,286047117.5,N,0.0,0.0
1480292755.8,286047117.7,N,0.0,0.0
1480292775.7,286047116.5,N,0.0,0.0
1480292795.5,286047119.4,N,0.0,0.0
1480292815.4,286047118.3,N,0.0,0.0
1480292835.2,286047121.0,N,0.0,0.0
1480292855.0,286047120.4,N,0.0,0.0
1480292855.9,286047120.4,N,0.0,0.0
1480292875.8,286047119.8,N,0.0,0.0
1480292895.6,286047121.0,N,0.0,0.0
1480292915.5,286047118.6,N,0.0,0.0
1480292935.3,286047121.1,N,0.0,0.0
1480292955.1,286047120.0,N,0.0,0.0
1480292975.9,286047122.3,N,0.0,0.0
1480292995.7,286047124.2,N,0.0,0.0
1480293015.5,286047124.3,N,0.0,0.0
1480293035.4,286047121.4,N,0.0,0.0
1480293055.2,286047124.3,N,0.0,0.0
1480293075.1,286047124.2,N,0.0,0.0
1480293076.0,286047124.2,N,0.0,0.0
1480293095.8,286047122.3,N,0.0,0.0
1480293115.6,286047121.6,N,0.0,0.0
1480293135.5,286047123.5,N,0.0,0.0
1480293155.3,286047125.4,N,0.0,0.0
1480293175.1,286047127.5,N,0.0,0.0
1480293195.9,286047127.0,N,0.0,0.0
1480293215.7,286047124.5,N,0.0,0.0
1480293235.6,286047123.3,N,0.0,0.0
1480293255.4,286047120.1,N,0.0,0.0
1480293275.2,286047118.5,N,0.0,0.0
1480293295.1,286047118.2,N,0.0,0.0
1480293296.0,286047118.2,N,0.0,0.0
1480293315.8,286047120.9,N,0.0,0.0
1480293335.7,286047122.6,N,0.0,0.0
1480293355.5,286047121.4,N,0.0,0.0
1480293375.3,286047123.2,N,0.0,0.0
1480293395.2,286047123.4,N,0.0,0.0
1480293415.0,286047125.6,N,0.0,0.0
1480293415.9,286047125.6,N,0.0,0.0
1480293435.8,286047125.8,N,0.0,0.0
1480293455.6,286047125.4,N,0.0,0.0
1480293475.4,286047127.4,N,0.0,0.0
1480293495.3,286047126.6,N,0.0,0.0
1480293515.1,286047126.3,N,0.0,0.0
1480293535.8,286047129.2,N,0.0,0.0
1480293555.7,286047128.0,N,0.0,0.0
1480293575.5,286047127.9,N,0.0,0.0
1480293595.4,286047130.5,N,0.0,0.0
1480293615.2,286047129.4,N,0.0,0.0
1480293635.0,286047129.7,N,0.0,0.0
1480293635.9,286047129.7,N,0.0,0.0
1480293655.8,286047131.2,N,0.0,0.0
1480293675.6,286047131.3,N,0.0,0.0
1480293695.4,286047131.1,N,0.0,0.0
1480293715.3,286047133.6,N,0.0,0.0
1480293735.1,286047133.4,N,0.0,0.0
1480293755.9,286047130.9,N,0.0,0.0
1480293775.7,286047132.2,N,0.0,0.0
1480293795.5,286047129.8,N,0.0,0.0
1480293815.4,286047129.8,N,0.0,0.0
1480293835.2,286047132.2,N,0.0,0.0
1480293855.0,286047129.4,N,0.0,0.0
1480293855.9,286047129.4,N,0.0,0.0
1480293875.8,286047131.0,N,0.0,0.0
1480293895.6,286047133.8,N,0.0,0.0
1480293915.5,286047133.2,N,0.0,0.0
1480293935.3,286047132.6,N,0.0,0.0
1480293955.1,286047132.6,N,0.0,0.0
1480293975.9,286047133.8,N,0.0,0.0
1480293995.7,286047131.4,N,0.0,0.0
1480294015.6,286047131.6,N,0.0,0.0
1480294035.4,286047131.2,N,0.0,0.0
1480294055.2,286047131.3,N,0.0,0.0
1480294075.1,286047133.6,N,0.0,0.0
1480294076.0,286047133.6,N,0.0,0.0
1480294095.8,286047133.3,N,0.0,0.0
1480294115.7,286047133.4,N,0.0,0.0
1480294135.5,286047131.3,N,0.0,0.0
1480294155.3,286047131.0,N,0.0,0.0
1480294175.2,286047133.7,N,0.0,0.0
1480294195.9,286047133.7,N,0.0,0.0
1480294215.7,286047133.0,N,0.0,0.0
1480294235.6,286047132.9,N,0.0,0.0
1480294255.4,286047133.4,N,0.0,0.0
1480294275.3,286047132.9,N,0.0,0.0
1480294295.1,286047135.6,N,0.0,0.0
1480294296.0,286047135.6,N,0.0,0.0
1480294315.8,286047135.3,N,0.0,0.0
1480294335.7,286047135.2,N,0.0,0.0
1480294355.5,286047135.3,N,0.0,0.0
1480294375.3,286047134.3,N,0.0,0.0
1480294395.2,286047134.2,N,0.0,0.0
1480294415.0,286047134.4,N,0.0,0.0
1480294415.9,286047134.4,N,0.0,0.0
1480294435.8,286047134.6,N,0.0,0.0
1480294455.6,286047134.8,N,0.0,0.0
1480294475.4,286047133.0,N,0.0,0.0
1480294495.3,286047131.0,N,0.0,0.0
1480294515.1,286047132.3,N,0.0,0.0
1480294535.9,286047130.4,N,0.0,0.0
1480294555.7,286047129.2,N,0.0,0.0
1480294575.5,286047127.6,N,0.0,0.0
1480294595.4,286047126.2,N,0.0,0.0
1480294615.2,286047126.1,N,0.0,0.0
1480294635.0,286047130.4,N,0.0,0.0
1480294635.9,286047130.4,N,0.0,0.0
1480294655.8,286047129.8,N,0.0,0.0
1480294675.6,286047131.6,N,0.0,0.0
1480294695.5,286047133.0,N,0.0,0.0
1480294715.3,286047132.5,N,0.0,0.0
1480294735.1,286047132.7,N,0.0,0.0
1480294755.9,286047135.6,N,0.0,0.0
1480294775.7,286047131.4,N,0.0,0.0
1480294795.6,286047130.4,N,0.0,0.0
